Location: Costa Mesa
(33.6411°N, 117.9187°W)
Time: 03:26:22
(UTC+00:00)

Cosmos 1850 Rocket - Pass Details

Date: 10 September 2024
Orbit: 751 x 783 km, 74.0° (Epoch: 10 October)

Event Time Altitude Azimuth Distance (km) Brightness Sun altitude
Rises 12:39:51 0° 199° (SSW) 3,208 6.9 -11.5°
Reaches altitude 10° 12:42:12 10° 200° (SSW) 2,291 6.1 -11.1°
Maximum altitude 12:47:24 79° 287° (WNW) 787 4.0 -10.0°
Drops below altitude 10° 12:52:42 10° 14° (NNE) 2,326 6.9 -8.9°
Sets 12:55:06 0° 16° (NNE) 3,261 7.7 -8.4°
